Voltar ao catálogo

SL-12 DEB

AtivoHEO
NORAD 48541·DEBRIS·🇷🇺 Russia

Lançado Mar 1, 2010 de Baikonur Cosmodrome

Loading…

Próximas Passagens (próximas 24 horas)

TLE

AtualizadoSource: Space-Track

Época: Sep 14, 2026, 21:44 UTC

1 48541U 10007AT  26257.90602243  .00002718  00000-0  83262-2 0  9999
2 48541  64.4773 226.4763 5603496 333.4408   6.2968  4.39864894178331

Acompanhe SL-12 DEB em tempo real com AllMySat

Download on the App Store